User: anonymous   Login
Location: Unspecified
(61.7857°N, 0.0000°E)
Time: 16:20:27
(UTC+00:00)
Language:

Hubble Space Telescope - Orbit

View from above orbital plane
View from above orbital plane
View from above satellite
View from above satellite

Ground track
Ground track

The orbit data is extracted from the following two-line orbital elements,

1 20580U 90037B   19198.01906250  .00000348  00000-0  10237-4 0  9997
2 20580  28.4705  24.6223 0002859  70.6876 190.3263 15.09245152405175
Epoch (UTC): 17 July 2019 00:27:27
Eccentricity: 0.0002859
inclination: 28.4705°
perigee height: 536 km
apogee height: 540 km
right ascension of ascending node: 24.6223°
argument of perigee: 70.6876°
revolutions per day: 15.09245152
mean anomaly at epoch: 190.3263°
orbit number at epoch: 40517

The dashed part of the orbit path shows where the satellite is in the earth's shadow,  

DLR